Weather History for KAND - March, 2013

Change the Weather History Date:

Friday, March 29, 2013

  Actual Average Record
Temperature  
Mean Temperature 46 °F -  
Max Temperature 62 °F 68 °F 85 °F (1989)
Min Temperature 30 °F 47 °F 28 °F (1966)
Degree Days  
Heating Degree Days 20    
Moisture  
Dew Point 28 °F    
Average Humidity 50    
Maximum Humidity 85    
Minimum Humidity 25    
Precipitation  
Precipitation 0.00 in - - ()
Sea Level Pressure  
Sea Level Pressure 30.28 in    
Wind  
Wind Speed 1 mph (North)    
Max Wind Speed 8 mph    
Max Gust Speed -    
Visibility 10 miles    
Events      
Averages and records for this station are not official NWS values.
T = Trace of Precipitation, MM = Missing Value Source: NWS Daily Summary

Daily Weather History Graph

Daily Weather History Graph

Search for Another Location

Airport or City:

Trip Planner

Search our weather history database for the weather conditions in past years. The results will help you decide how hot, cold, wet, or windy it might be!

Date:

Astronomy

Mar. 29, 2013 Rise Set
Actual Time 7:21 AM EDT 7:49 PM EDT
Civil Twilight 6:56 AM EDT 8:15 PM EDT
Nautical Twilight 6:26 AM EDT 8:44 PM EDT
Astronomical Twilight 5:56 AM EDT 9:14 PM EDT
Moon 10:39 PM EDT (3/29) 8:37 AM EDT (3/29)
Length of Visible Light 13h 18m
Length of Day
12h 28m
Waning Gibbous, 93% of the Moon is Illuminated
Mar 29
Waning Gibbous
Apr 3
Last Quarter
Apr 10
New
Apr 18
First Quarter
Apr 25
Full

Hourly Weather History & Observations

Time (EDT) Temp. Dew Point Humidity Pressure Visibility Wind Dir Wind Speed Gust Speed Precip Events Conditions
12:56 AM 39.9 °F 21.0 °F 47% 30.30 in 10.0 mi Calm Calm - N/A   Clear
1:56 AM 37.0 °F 24.1 °F 59% 30.31 in 10.0 mi Calm Calm - N/A   Clear
2:56 AM 35.1 °F 25.0 °F 67% 30.31 in 10.0 mi Calm Calm - N/A   Clear
3:56 AM 34.0 °F 24.1 °F 67% 30.30 in 10.0 mi Calm Calm - N/A   Clear
4:56 AM 32.0 °F 25.0 °F 75% 30.31 in 10.0 mi Calm Calm - N/A   Clear
5:56 AM 30.9 °F 26.1 °F 82% 30.31 in 10.0 mi Calm Calm - N/A   Clear
6:56 AM 30.9 °F 26.1 °F 82% 30.33 in 10.0 mi Calm Calm - N/A   Clear
7:56 AM 30.0 °F 26.1 °F 85% 30.35 in 10.0 mi Calm Calm - N/A   Clear
8:56 AM 41.0 °F 33.1 °F 73% 30.35 in 10.0 mi Calm Calm - N/A   Clear
9:56 AM 48.9 °F 25.0 °F 39% 30.35 in 10.0 mi Calm Calm - N/A   Clear
10:56 AM 52.0 °F 24.1 °F 34% 30.35 in 10.0 mi Calm Calm - N/A   Clear
11:56 AM 55.9 °F 23.0 °F 28% 30.34 in 10.0 mi Calm Calm - N/A   Mostly Cloudy
12:56 PM 55.9 °F 24.1 °F 29% 30.32 in 10.0 mi Calm Calm - N/A   Scattered Clouds
1:56 PM 57.9 °F 21.9 °F 25% 30.28 in 10.0 mi Variable 6.9 mph - N/A   Overcast
2:56 PM 57.9 °F 24.1 °F 27% 30.26 in 10.0 mi WSW 4.6 mph - N/A   Overcast
3:56 PM 60.1 °F 25.0 °F 26% 30.24 in 10.0 mi WNW 8.1 mph - N/A   Overcast
4:56 PM 60.1 °F 27.0 °F 28% 30.23 in 10.0 mi NW 4.6 mph - N/A   Mostly Cloudy
5:56 PM 61.0 °F 27.0 °F 27% 30.22 in 10.0 mi NE 6.9 mph - N/A   Mostly Cloudy
6:56 PM 57.9 °F 30.9 °F 36% 30.22 in 10.0 mi North 6.9 mph - N/A   Overcast
7:56 PM 55.9 °F 34.0 °F 44% 30.22 in 10.0 mi North 4.6 mph - N/A   Overcast
8:56 PM 55.0 °F 35.1 °F 47% 30.23 in 10.0 mi Calm Calm - N/A   Overcast
9:56 PM 54.0 °F 36.0 °F 51% 30.22 in 10.0 mi Calm Calm - N/A   Overcast
10:56 PM 52.0 °F 37.9 °F 59% 30.22 in 10.0 mi East 4.6 mph - N/A   Overcast
11:56 PM 51.1 °F 39.0 °F 63% 30.21 in 10.0 mi ENE 4.6 mph - N/A   Mostly Cloudy